North Bend, OR

9:57 AM PDT on April 30, 2017 (GMT -0700)
North Bend Municipal

Weather History for KOTH - July, 2013

Change the Weather History Date:

Friday, July 26, 2013

  Actual Average Record
Temperature  
Mean Temperature 56 °F 59 °F  
Max Temperature 63 °F 65 °F 76 °F (1926)
Min Temperature 48 °F 53 °F 41 °F (1919)
Degree Days  
Heating Degree Days 9 6  
Month to date heating degree days 67 167  
Since 1 June heating degree days 237 434  
Since 1 July heating degree days 67 167  
Cooling Degree Days 0 0  
Month to date cooling degree days 0 0  
Year to date cooling degree days 4 0  
Since 1 June cooling degree days 0 0  
Growing Degree Days 5 (Base 50)    
Moisture  
Dew Point 51 °F    
Average Humidity 86    
Maximum Humidity 100    
Minimum Humidity 67    
Precipitation  
Precipitation 0.00 in 0.01 in 0.61 in (1947)
Month to date precipitation 0.00 0.44  
Year to date precipitation 17.49 36.56  
Sea Level Pressure  
Sea Level Pressure 30.14 in    
Wind  
Wind Speed 17 mph (North)    
Max Wind Speed 32 mph    
Max Gust Speed 40 mph    
Visibility 8 miles    
Events      
T = Trace of Precipitation, MM = Missing Value Source: NWS Daily Summary

Daily Weather History Graph

Daily Weather History Graph

Search for Another Location

Airport or City:

Trip Planner

Search our weather history database for the weather conditions in past years. The results will help you decide how hot, cold, wet, or windy it might be!

Date:

Astronomy

Jul. 26, 2013 Rise Set
Actual Time 6:00 AM PDT 8:45 PM PDT
Civil Twilight 5:27 AM PDT 9:18 PM PDT
Nautical Twilight 4:45 AM PDT 10:00 PM PDT
Astronomical Twilight 3:57 AM PDT 10:48 PM PDT
Moon 10:51 PM PDT (7/26) 10:53 AM PDT (7/26)
Length of Visible Light 15h 51m
Length of Day
14h 44m
Waning Gibbous, 79% of the Moon is Illuminated
Jul 26
Waning Gibbous
Jul 29
Last Quarter
Aug 6
New
Aug 14
First Quarter
Aug 20
Full

Hourly Weather History & Observations

Time (PDT) Temp. Dew Point Humidity Pressure Visibility Wind Dir Wind Speed Gust Speed Precip Events Conditions
12:15 AM 51.8 °F 51.8 °F 100% 30.07 in 10.0 mi North 8.1 mph - N/A   Clear
12:35 AM 51.8 °F 51.8 °F 100% 30.08 in 9.0 mi North 8.1 mph - N/A   Clear
12:55 AM 51.8 °F 50.0 °F 94% 30.08 in 9.0 mi North 10.4 mph - N/A   Clear
1:15 AM 51.8 °F 50.0 °F 94% 30.09 in 8.0 mi North 9.2 mph - N/A   Clear
1:35 AM 51.8 °F 50.0 °F 94% 30.09 in 7.0 mi North 10.4 mph - N/A   Clear
1:55 AM 50.0 °F 48.2 °F 94% 30.09 in 6.0 mi North 9.2 mph - N/A   Mostly Cloudy
2:15 AM 48.2 °F 46.4 °F 93% 30.09 in 5.0 mi North 5.8 mph - N/A   Overcast
2:35 AM 48.2 °F 48.2 °F 100% 30.09 in 5.0 mi North 5.8 mph - N/A   Overcast
2:55 AM 48.2 °F 48.2 °F 100% 30.09 in 5.0 mi NNW 9.2 mph - N/A   Overcast
3:15 AM 48.2 °F 48.2 °F 100% 30.10 in 8.0 mi North 3.5 mph - N/A   Overcast
3:35 AM 48.2 °F 48.2 °F 100% 30.10 in 3.0 mi North 6.9 mph - N/A   Overcast
3:55 AM 48.2 °F 48.2 °F 100% 30.10 in 7.0 mi North 5.8 mph - N/A   Overcast
4:15 AM 48.2 °F 48.2 °F 100% 30.11 in 3.0 mi North 5.8 mph - N/A   Overcast
4:35 AM 48.2 °F 48.2 °F 100% 30.12 in 3.0 mi North 5.8 mph - N/A   Overcast
4:55 AM 48.2 °F 46.4 °F 93% 30.11 in 3.0 mi North 9.2 mph - N/A   Overcast
5:15 AM 48.2 °F 48.2 °F 100% 30.11 in 2.0 mi North 6.9 mph - N/A   Overcast
5:35 AM 48.2 °F 46.4 °F 93% 30.11 in 2.0 mi North 8.1 mph - N/A   Overcast
5:55 AM 48.2 °F 48.2 °F 100% 30.11 in 2.5 mi North 8.1 mph - N/A   Overcast
6:15 AM 48.2 °F 46.4 °F 93% 30.12 in 0.8 mi North 5.8 mph - N/A   Overcast
6:35 AM 48.2 °F 46.4 °F 93% 30.12 in 2.0 mi North 4.6 mph - N/A   Overcast
6:55 AM 48.2 °F 46.4 °F 93% 30.13 in 3.0 mi North 5.8 mph - N/A   Overcast
7:15 AM 48.2 °F 48.2 °F 100% 30.14 in 1.0 mi North 6.9 mph - N/A   Overcast
7:35 AM 50.0 °F 48.2 °F 94% 30.14 in 0.5 mi North 10.4 mph - N/A   Overcast
7:55 AM 50.0 °F 48.2 °F 94% 30.14 in 1.5 mi North 5.8 mph - N/A   Overcast
8:15 AM 51.8 °F 50.0 °F 94% 30.15 in 2.0 mi North 4.6 mph - N/A   Overcast
8:35 AM 51.8 °F 50.0 °F 94% 30.15 in 2.0 mi Calm Calm - N/A   Overcast
8:55 AM 51.8 °F 50.0 °F 94% 30.16 in 2.0 mi NNW 3.5 mph - N/A   Overcast
9:15 AM 53.6 °F 51.8 °F 94% 30.16 in 4.0 mi North 3.5 mph - N/A   Overcast
9:35 AM 53.6 °F 50.0 °F 88% 30.16 in 4.0 mi WNW 4.6 mph - N/A   Overcast
9:55 AM 55.4 °F 51.8 °F 88% 30.16 in 10.0 mi North 3.5 mph - N/A   Mostly Cloudy
10:15 AM 57.2 °F 51.8 °F 82% 30.16 in 10.0 mi NNW 9.2 mph - N/A   Scattered Clouds
10:35 AM 57.2 °F 51.8 °F 82% 30.15 in 10.0 mi North 12.7 mph - N/A   Scattered Clouds
10:55 AM 57.2 °F 51.8 °F 82% 30.15 in 10.0 mi North 19.6 mph - N/A   Scattered Clouds
11:15 AM 55.4 °F 51.8 °F 88% 30.16 in 10.0 mi North 17.3 mph - N/A   Clear
11:35 AM 57.2 °F 51.8 °F 82% 30.15 in 10.0 mi North 17.3 mph 23.0 mph N/A   Clear
11:55 AM 57.2 °F 51.8 °F 82% 30.15 in 10.0 mi North 19.6 mph 24.2 mph N/A   Clear
12:15 PM 60.8 °F 51.8 °F 72% 30.15 in 10.0 mi North 18.4 mph 28.8 mph N/A   Clear
12:35 PM 60.8 °F 51.8 °F 72% 30.14 in 10.0 mi North 21.9 mph 27.6 mph N/A   Clear
12:55 PM 60.8 °F 51.8 °F 72% 30.14 in 10.0 mi North 27.6 mph 31.1 mph N/A   Clear
1:15 PM 60.8 °F 51.8 °F 72% 30.14 in 10.0 mi North 25.3 mph 29.9 mph N/A   Clear
1:35 PM 60.8 °F 51.8 °F 72% 30.14 in 10.0 mi North 28.8 mph 32.2 mph N/A   Clear
1:55 PM 60.8 °F 51.8 °F 72% 30.14 in 10.0 mi North 26.5 mph 31.1 mph N/A   Clear
2:15 PM 60.8 °F 51.8 °F 72% 30.14 in 10.0 mi North 23.0 mph 33.4 mph N/A   Clear
2:35 PM 60.8 °F 51.8 °F 72% 30.14 in 10.0 mi North 25.3 mph 34.5 mph N/A   Clear
2:55 PM 62.6 °F 51.8 °F 68% 30.14 in 10.0 mi North 23.0 mph 34.5 mph N/A   Clear
3:15 PM 60.8 °F 51.8 °F 72% 30.14 in 10.0 mi North 26.5 mph 36.8 mph N/A   Clear
3:35 PM 60.8 °F 51.8 °F 72% 30.15 in 10.0 mi North 28.8 mph 35.7 mph N/A   Clear
3:55 PM 60.8 °F 51.8 °F 72% 30.15 in 10.0 mi North 28.8 mph 38.0 mph N/A   Clear
4:15 PM 60.8 °F 51.8 °F 72% 30.15 in 10.0 mi North 26.5 mph 36.8 mph N/A   Clear
4:35 PM 60.8 °F 51.8 °F 72% 30.14 in 10.0 mi North 32.2 mph 41.4 mph N/A   Clear
4:55 PM 60.8 °F 51.8 °F 72% 30.14 in 10.0 mi North 31.1 mph 40.3 mph N/A   Clear
5:15 PM 60.8 °F 51.8 °F 72% 30.14 in 10.0 mi North 33.4 mph 42.6 mph N/A   Clear
5:35 PM 60.8 °F 51.8 °F 72% 30.14 in 10.0 mi North 29.9 mph 39.1 mph N/A   Clear
5:55 PM 59.0 °F 51.8 °F 77% 30.14 in 10.0 mi North 28.8 mph 38.0 mph N/A   Clear
6:15 PM 59.0 °F 51.8 °F 77% 30.13 in 10.0 mi North 26.5 mph 40.3 mph N/A   Clear
6:35 PM 59.0 °F 51.8 °F 77% 30.13 in 10.0 mi North 27.6 mph 38.0 mph N/A   Clear
6:55 PM 57.2 °F 51.8 °F 82% 30.13 in 10.0 mi North 32.2 mph 36.8 mph N/A   Clear
7:15 PM 57.2 °F 51.8 °F 82% 30.14 in 10.0 mi North 26.5 mph 34.5 mph N/A   Clear
7:35 PM 57.2 °F 51.8 °F 82% 30.14 in 10.0 mi North 25.3 mph 34.5 mph N/A   Clear
7:55 PM 57.2 °F 51.8 °F 82% 30.14 in 10.0 mi North 25.3 mph 33.4 mph N/A   Clear
8:15 PM 57.2 °F 51.8 °F 82% 30.15 in 10.0 mi North 20.7 mph 32.2 mph N/A   Clear
8:35 PM 55.4 °F 51.8 °F 88% 30.16 in 10.0 mi North 21.9 mph 29.9 mph N/A   Clear
8:55 PM 55.4 °F 51.8 °F 88% 30.16 in 10.0 mi North 21.9 mph 26.5 mph N/A   Clear
9:15 PM 55.4 °F 51.8 °F 88% 30.17 in 10.0 mi North 17.3 mph 23.0 mph N/A   Clear
9:35 PM 55.4 °F 51.8 °F 88% 30.17 in 10.0 mi North 19.6 mph 24.2 mph N/A   Clear
9:55 PM 55.4 °F 51.8 °F 88% 30.18 in 10.0 mi North 17.3 mph 23.0 mph N/A   Clear
10:15 PM 55.4 °F 51.8 °F 88% 30.18 in 10.0 mi North 18.4 mph 24.2 mph N/A   Clear
10:35 PM 55.4 °F 51.8 °F 88% 30.18 in 10.0 mi North 18.4 mph 29.9 mph N/A   Clear
10:55 PM 55.4 °F 51.8 °F 88% 30.18 in 10.0 mi North 15.0 mph - N/A   Clear
11:15 PM 55.4 °F 51.8 °F 88% 30.18 in 10.0 mi North 15.0 mph - N/A   Clear
11:35 PM 55.4 °F 51.8 °F 88% 30.19 in 10.0 mi North 10.4 mph - N/A   Clear
11:55 PM 53.6 °F 51.8 °F 94% 30.19 in 10.0 mi North 9.2 mph - N/A   Clear